Weather History for Ainsworth, NE

Change the Weather History Date:

Thursday, April 4, 2013

  Actual Average Record
Temperature  
Mean Temperature 44 °F -  
Max Temperature 57 °F 50 °F 80 °F (2005)
Min Temperature 33 °F 30 °F 17 °F (2002)
Degree Days  
Heating Degree Days 20    
Moisture  
Dew Point 22 °F    
Average Humidity 44    
Maximum Humidity 75    
Minimum Humidity 16    
Precipitation  
Precipitation 0.00 in - - ()
Sea Level Pressure  
Sea Level Pressure 30.11 in    
Wind  
Wind Speed 12 mph (NE)    
Max Wind Speed 20 mph    
Max Gust Speed 25 mph    
Visibility 10 miles    
Events      
Averages and records for this station are not official NWS values.
T = Trace of Precipitation, MM = Missing Value Source: NWS Daily Summary

Daily Weather History Graph

Daily Weather History Graph

Search for Another Location

Airport:

Trip Planner

Search our weather history database for the weather conditions in past years. The results will help you decide how hot, cold, wet, or windy it might be!

Date:

Astronomy

Apr. 04, 2013 Rise Set
Actual Time 7:16 AM CDT 8:09 PM CDT
Civil Twilight 6:48 AM CDT 8:38 PM CDT
Nautical Twilight 6:14 AM CDT 9:12 PM CDT
Astronomical Twilight 5:38 AM CDT 9:48 PM CDT
Moon 3:51 AM CDT (4/4) 2:23 PM CDT (4/4)
Length of Visible Light 13h 50m
Length of Day
12h 53m
Waning Crescent, 33% of the Moon is Illuminated
Apr 4
Waning Crescent
Apr 10
New
Apr 18
First Quarter
Apr 25
Full
May 2
Last Quarter

Hourly Weather History & Observations

Time (CDT) Temp. Windchill Dew Point Humidity Pressure Visibility Wind Dir Wind Speed Gust Speed Precip Events Conditions
12:15 AM 45.5 °F 38.9 °F 28.2 °F 51% 30.07 in 10.0 mi SSW 15.0 mph - N/A   Scattered Clouds
12:35 AM 45.1 °F 37.3 °F 28.4 °F 52% 30.07 in 10.0 mi SSW 19.6 mph 25.3 mph N/A   Mostly Cloudy
12:55 AM 44.8 °F 37.7 °F 28.6 °F 53% 30.07 in 10.0 mi SW 16.1 mph 24.2 mph N/A   Mostly Cloudy
1:15 AM 44.6 °F 36.9 °F 28.9 °F 54% 30.07 in 10.0 mi SSW 18.4 mph 23.0 mph N/A   Mostly Cloudy
1:35 AM 44.6 °F 36.9 °F 28.9 °F 54% 30.08 in 10.0 mi SW 18.4 mph 25.3 mph N/A   Mostly Cloudy
1:55 AM 44.8 °F 37.1 °F 29.1 °F 54% 30.08 in 10.0 mi SW 18.4 mph 24.2 mph N/A   Mostly Cloudy
2:15 AM 44.2 °F 36.7 °F 29.1 °F 55% 30.08 in 10.0 mi SW 17.3 mph - N/A   Mostly Cloudy
2:35 AM 43.7 °F 38.1 °F 29.3 °F 57% 30.10 in 10.0 mi West 10.4 mph - N/A   Scattered Clouds
2:55 AM 42.6 °F 38.4 °F 29.3 °F 59% 30.10 in 10.0 mi West 6.9 mph - N/A   Mostly Cloudy
3:15 AM 42.3 °F 35.5 °F 29.3 °F 60% 30.08 in 10.0 mi WSW 12.7 mph - N/A   Scattered Clouds
3:35 AM 42.8 °F 36.2 °F 29.3 °F 59% 30.08 in 10.0 mi WSW 12.7 mph - N/A   Scattered Clouds
3:55 AM 42.3 °F 38.6 °F 29.8 °F 61% 30.08 in 10.0 mi West 5.8 mph - N/A   Scattered Clouds
4:15 AM 39.6 °F 34.0 °F 29.5 °F 67% 30.09 in 10.0 mi North 8.1 mph - N/A   Clear
4:35 AM 38.3 °F 31.9 °F 29.5 °F 71% 30.10 in 10.0 mi NNW 9.2 mph - N/A   Clear
4:55 AM 38.3 °F 30.9 °F 30.0 °F 72% 30.10 in 10.0 mi NNW 11.5 mph - N/A   Clear
5:15 AM 37.4 °F 29.8 °F 29.3 °F 73% 30.11 in 10.0 mi NNW 11.5 mph - N/A   Clear
5:35 AM 36.7 °F 29.4 °F 28.8 °F 73% 30.11 in 10.0 mi NNW 10.4 mph - N/A   Clear
5:55 AM 35.8 °F 28.3 °F 28.0 °F 73% 30.11 in 10.0 mi NNW 10.4 mph - N/A   Clear
6:15 AM 35.6 °F 27.5 °F 27.1 °F 71% 30.12 in 10.0 mi NNW 11.5 mph - N/A   Clear
6:35 AM 35.1 °F 27.4 °F 26.4 °F 71% 30.12 in 10.0 mi NNW 10.4 mph - N/A   Clear
6:55 AM 33.8 °F 26.4 °F 26.1 °F 73% 30.13 in 10.0 mi NNW 9.2 mph - N/A   Clear
7:15 AM 33.1 °F 25.5 °F 25.7 °F 74% 30.14 in 10.0 mi North 9.2 mph - N/A   Clear
7:35 AM 33.1 °F 24.4 °F 26.1 °F 75% 30.15 in 10.0 mi NNW 11.5 mph - N/A   Clear
7:55 AM 34.0 °F 27.2 °F 26.6 °F 74% 30.15 in 10.0 mi North 8.1 mph - N/A   Clear
8:15 AM 34.9 °F 26.2 °F 26.8 °F 72% 30.15 in 10.0 mi North 12.7 mph - N/A   Clear
8:35 AM 36.0 °F 27.1 °F 26.1 °F 67% 30.16 in 10.0 mi North 13.8 mph - N/A   Clear
8:55 AM 37.2 °F 27.3 °F 24.8 °F 61% 30.17 in 10.0 mi North 18.4 mph - N/A   Clear
9:15 AM 38.3 °F 29.3 °F 23.4 °F 55% 30.17 in 10.0 mi North 16.1 mph - N/A   Clear
9:35 AM 39.7 °F 31.9 °F 23.2 °F 52% 30.16 in 10.0 mi North 13.8 mph - N/A   Clear
9:55 AM 40.8 °F 33.3 °F 23.4 °F 50% 30.16 in 10.0 mi North 13.8 mph - N/A   Clear
10:15 AM 42.1 °F 34.9 °F 22.3 °F 45% 30.17 in 10.0 mi North 13.8 mph - N/A   Clear
10:35 AM 42.8 °F 36.6 °F 21.6 °F 43% 30.17 in 10.0 mi North 11.5 mph 17.3 mph N/A   Clear
10:55 AM 43.3 °F 37.2 °F 21.7 °F 42% 30.17 in 10.0 mi North 11.5 mph 17.3 mph N/A   Clear
11:35 AM 46.2 °F 41.2 °F 17.4 °F 32% 30.16 in 10.0 mi NNE 10.4 mph - N/A   Clear
11:55 AM 47.1 °F - 16.7 °F 30% 30.16 in 10.0 mi NNE 9.2 mph 16.1 mph N/A   Clear
12:15 PM 48.2 °F - 16.0 °F 28% 30.16 in 10.0 mi North 6.9 mph 10.4 mph N/A   Clear
12:35 PM 49.8 °F - 13.8 °F 24% 30.16 in 10.0 mi NNE 11.5 mph 16.1 mph N/A   Clear
12:55 PM 50.0 °F - 15.4 °F 25% 30.16 in 10.0 mi NE 10.4 mph - N/A   Clear
1:15 PM 50.7 °F - 15.3 °F 24% 30.16 in 10.0 mi NNE 9.2 mph - N/A   Clear
1:35 PM 51.4 °F - 16.7 °F 25% 30.15 in 10.0 mi NE 10.4 mph - N/A   Clear
1:55 PM 51.6 °F - 15.6 °F 24% 30.15 in 10.0 mi ENE 5.8 mph - N/A   Clear
2:15 PM 52.5 °F - 12.6 °F 20% 30.14 in 10.0 mi NE 9.2 mph - N/A   Clear
2:35 PM 53.8 °F - 11.7 °F 19% 30.14 in 10.0 mi ENE 6.9 mph - N/A   Clear
2:55 PM 54.3 °F - 8.6 °F 16% 30.13 in 10.0 mi ENE 9.2 mph - N/A   Clear
3:15 PM 54.3 °F - 8.2 °F 16% 30.12 in 10.0 mi ENE 4.6 mph - N/A   Clear
3:35 PM 55.2 °F - 10.0 °F 17% 30.11 in 10.0 mi East 5.8 mph - N/A   Clear
3:55 PM 55.9 °F - 10.4 °F 16% 30.11 in 10.0 mi NE 4.6 mph - N/A   Clear
4:15 PM 56.7 °F - 11.5 °F 17% 30.11 in 10.0 mi NE 5.8 mph - N/A   Clear
4:35 PM 56.3 °F - 11.8 °F 17% 30.10 in 10.0 mi NE 5.8 mph - N/A   Clear
4:55 PM 56.3 °F - 11.5 °F 17% 30.10 in 10.0 mi Calm Calm - N/A   Clear
5:15 PM 56.3 °F - 12.2 °F 17% 30.10 in 10.0 mi ESE 8.1 mph - N/A   Clear
5:35 PM 56.3 °F - 13.1 °F 18% 30.10 in 10.0 mi Calm Calm - N/A   Clear
5:55 PM 56.7 °F - 13.6 °F 18% 30.10 in 10.0 mi East 6.9 mph - N/A   Clear
6:15 PM 56.3 °F - 14.0 °F 19% 30.10 in 10.0 mi East 3.5 mph - N/A   Clear
6:35 PM 55.9 °F - 14.5 °F 20% 30.10 in 10.0 mi East 3.5 mph - N/A   Clear
6:55 PM 55.6 °F - 15.6 °F 21% 30.10 in 10.0 mi East 8.1 mph - N/A   Clear
7:15 PM 54.7 °F - 15.6 °F 21% 30.10 in 10.0 mi East 5.8 mph - N/A   Clear
7:35 PM 53.6 °F - 17.6 °F 24% 30.09 in 10.0 mi ESE 6.9 mph - N/A   Clear
7:55 PM 50.2 °F - 19.6 °F 30% 30.09 in 10.0 mi ESE 6.9 mph - N/A   Clear
8:15 PM 47.1 °F - 21.4 °F 36% 30.09 in 10.0 mi ESE 8.1 mph - N/A   Clear
8:35 PM 45.0 °F 40.6 °F 22.8 °F 42% 30.09 in 10.0 mi East 8.1 mph - N/A   Clear
8:55 PM 41.7 °F 36.7 °F 23.0 °F 47% 30.09 in 10.0 mi East 8.1 mph - N/A   Clear
9:15 PM 43.0 °F 38.2 °F 23.9 °F 47% 30.09 in 10.0 mi East 8.1 mph - N/A   Clear
9:35 PM 42.3 °F 37.3 °F 23.9 °F 48% 30.09 in 10.0 mi East 8.1 mph - N/A   Clear
9:55 PM 42.3 °F 37.3 °F 23.5 °F 48% 30.09 in 10.0 mi East 8.1 mph - N/A   Clear
10:15 PM 41.5 °F 36.4 °F 23.0 °F 48% 30.09 in 10.0 mi East 8.1 mph - N/A   Clear
10:35 PM 40.5 °F 34.1 °F 23.0 °F 50% 30.08 in 10.0 mi ESE 10.4 mph - N/A   Clear
10:55 PM 40.1 °F 33.6 °F 22.1 °F 49% 30.08 in 10.0 mi East 10.4 mph - N/A   Clear
11:15 PM 39.0 °F 31.4 °F 21.7 °F 50% 30.08 in 10.0 mi East 12.7 mph - N/A   Clear
11:35 PM 39.7 °F 31.9 °F 22.6 °F 50% 30.08 in 10.0 mi East 13.8 mph - N/A   Clear
11:55 PM 39.2 °F 31.6 °F 22.8 °F 52% 30.08 in 10.0 mi East 12.7 mph - N/A   Clear